AirNav   Phillips 66 Aviation Fuel
 
 481 users online  

7S3 Stark's Twin Oaks Airpark
Hillsboro, Oregon, USA

GOING TO HILLSBORO?


FAA INFORMATION EFFECTIVE 24 MAY 2018

Location

FAA Identifier: 7S3
Lat/Long: 45-25-42.4210N / 122-56-31.7650W
45-25.707017N / 122-56.529417W
45.4284503 / -122.9421569
(estimated)
Elevation: 170 ft. / 52 m (estimated)
Variation: 19E (1985)
From city: 4 miles S of HILLSBORO, OR
Time zone: UTC -7 (UTC -8 during Standard Time)
Zip code: 97123

Airport Operations

Airport use: Open to the public
Activation date: 07/1974
Control tower: no
ARTCC: SEATTLE CENTER
FSS: MC MINNVILLE FLIGHT SERVICE STATION
NOTAMs facility: MMV (NOTAM-D service available)
Attendance: DAWN-DUSK
Pattern altitude: 1200 ft. MSL
Wind indicator: yes
Segmented circle: no
Lights: ACTIVATE LIRL RY 02/20-CTAF; AFT 0000 PPR CALL AMGR 503-628-2817.

Airport Communications

CTAF/UNICOM: 123.05
CLEARANCE DELIVERY: 119.95
WX ASOS at HIO (7 nm N): PHONE 503-640-2984
WX ASOS at UAO (13 nm SE): PHONE 503-678-3011
WX ASOS at MMV (16 nm SW): 135.675 (503-434-9153)
WX ASOS at VUO (17 nm NE): 135.125 (360-696-1280)
WX ASOS at PDX (17 nm NE): PHONE (503) 493-7687

Nearby radio navigation aids

VOR radial/distance  VOR name  Freq  Var
UBGr358/4.8NEWBERG VOR/DME117.4021E
BTGr197/24.2BATTLE GROUND VORTAC116.6021E

 
NDB name  Hdg/Dist  Freq  Var  ID
BANKS144/12.935616EPND .--. -. -..
LAKER235/21.333216ELBH .-.. -... ....
TURNO344/34.926617ESLE ... .-.. .

Airport Services

Fuel available: 100LL
Parking: tiedowns
Airframe service: MAJOR
Powerplant service: MINOR
Bottled oxygen: NONE
Bulk oxygen: NONE

Runway Information

Runway 2/20

Dimensions: 2465 x 48 ft. / 751 x 15 m
Surface: asphalt, in good condition
Runway edge lights: low intensity
LIGHT FIXTURES 30' FROM RWY EDGES.
Runway edge markings: RWY 20 NTSD BSC MKGS, RWY 20 NO NUMBERS
RUNWAY 2  RUNWAY 20
Gradient: 1.5%1.5%
Traffic pattern: leftleft
Displaced threshold: 100 ft.no
Markings: NSTD, in fair conditionNSTD, in fair condition
Obstructions: 100 ft. tree, 3078 ft. from runway, 28:1 slope to clear
26:1 BASED ON DISPLACED THRESHOLD
10 ft. trees, 201 ft. from runway, 120 ft. left of centerline
20' TREES AT 175' AND 120' LEFT OF CENTERLINE NO SAFETY AREA

Airport Ownership and Management from official FAA records

Ownership: Privately-owned
Owner: ROBERT C & BETTY STARK
12405 S.W. RIVER RD
HILLSBORO, OR 97123
Phone 503-522-8952
Manager: ROBERT C. STARK
12405 S.W. RIVER RD
HILLSBORO, OR 97123
Phone 503-628-2817

Airport Operational Statistics

Aircraft based on the field: 113
Single engine airplanes: 107
Multi engine airplanes: 1
Helicopters: 4
Ultralights: 1
    
Aircraft operations: avg 61/day *
74% transient general aviation
26% local general aviation
* for 12-month period ending 31 August 2015

Additional Remarks

RUNWAY ENDS NOT VISIBLE FROM EACH OTHER
FOR CD CTC P80 APCH AT 503-493-7545.

Instrument Procedures

There are no published instrument procedures at 7S3.

Some nearby airports with instrument procedures:

KHIO - Portland-Hillsboro Airport (7 nm N)
KUAO - Aurora State Airport (13 nm SE)
KMMV - Mc Minnville Municipal Airport (16 nm SW)
KVUO - Pearson Field Airport (17 nm NE)
KPDX - Portland International Airport (17 nm NE)
 
Loc | Ops | Rwys | IFR | FBO | Links
Com | Nav | Svcs | Stats | Notes

AirNav Hotels Sweepstakes
 
Area around 7S3 (Stark's Twin Oaks Airpark)
 
Road maps at: MapQuest Bing Google
 
Aerial photo
WARNING: Photo may not be current or correct
Aerial photo of 7S3 (Stark's Twin Oaks Airpark)
Photo taken 19-Sep-2011
looking northeast.

Do you have a better or more recent aerial photo of Stark's Twin Oaks Airpark that you would like to share? If so, please send us your photo.

 
Sectional chart

 
Airport diagram
CAUTION: Diagram may not be current
Diagram of 7S3 (Stark's Twin Oaks Airpark)
 
Airport distance calculator
Flying to Stark's Twin Oaks Airpark? Find the distance to fly.

From to 7S3

Sunrise and sunset
Times for 20-Jun-2018
 Local
(UTC-7)
 Zulu
(UTC)
Morning civil twilight04:4611:46
Sunrise05:2412:24
Sunset21:0304:03
Evening civil twilight21:4004:40

Current date and time
Zulu (UTC)  21-Jun-2018 05:42:13
Local (UTC-7)  20-Jun-2018 22:42:13
 
METAR
KHIO 
7nm N 
210453Z AUTO 28007KT 10SM VCTS BKN070 BKN085 BKN100 21/14 A2999 RMK AO2 LTG DSNT SE TSB34E49 SLP152 T02060139
KUAO 
13nm SE 
210509Z AUTO 21009KT 10SM BKN070 OVC120 18/13 A3003 RMK AO2 LTG DSNT NW-E T01780128
KMMV 
16nm SW 
210453Z AUTO 22011KT 10SM CLR 16/13 A3000 RMK AO2 LTG DSNT NE SLP159 T01560133 $
KVUO 
17nm NE 
210453Z AUTO 32007KT 10SM BKN060 BKN120 21/14 A2999 RMK AO2 LTG DSNT SW SLP154 T02110139
KPDX 
17nm NE 
210453Z 22008KT 10SM SCT065 BKN120 OVC250 22/13 A2999 RMK AO2 LTG DSNT SW SLP153 T02220133
TAF
KHIO 
7nm N 
201720Z 2018/2118 VRB03KT P6SM FEW150 SCT250 FM202300 28007KT P6SM -SHRA BKN060 BKN120 FM210500 VRB03KT P6SM BKN050 FM211000 VRB03KT P6SM OVC025
KUAO 
13nm SE 
210413Z 2104/2124 22011G17KT P6SM VCTS BKN060CB OVC070 FM210600 20004KT P6SM BKN060 FM211000 20004KT P6SM OVC025 FM212000 27005KT P6SM BKN035
KPDX 
17nm NE 
210335Z 2104/2124 21011KT P6SM FEW070 FEW130 OVC250 FM210900 28005KT P6SM OVC025 FM211200 25005KT P6SM OVC015 FM212100 28005KT P6SM BKN035
NOTAMs
Click for the latest NOTAMs
NOTAMs are issued by the DoD/FAA and will open in a separate window not controlled by AirNav.

 

 
 

FBO, Fuel Providers, and Aircraft Ground Support

  
 Business Name 
 
 Contact 
 
 Services / Description 
 
Fuel Prices
 
Comments
  
Twin Oaks Airpark 503-451-3480
503-522-8952
[web site]
[email]
Airport management, Aviation fuel, Aircraft parking (ramp or tiedown), Hangars, Hangar leasing / sales, Flight training, Aircraft rental, ...

More info about Twin Oaks Airpark
EPIC
100LL
SS $4.54 
 Updated 19-Jun-2018
 
   1 read write
SS=Self service
Update Fuel Prices
 

Would you like to see your business listed on this page?

 If your business provides an interesting product or service to pilots, flight crews, aircraft, or users of the Stark's Twin Oaks Airpark, you should consider listing it here.  To start the listing process, click on the button below
 
Add a business
 

Other Pages about Stark's Twin Oaks Airpark

www.twinoaksairpark.com
 
Update a link
 
Copyright © AirNav, LLC. All rights reserved. Privacy Policy  Contact